[[{"header":{"parameterUnit":"m.s-1","parameterCategory":1,"la1":30.2991,"la2":30.254,"lo1":-89.0895,"lo2":-89.0444,"dy":0.0017,"dx":0.0017,"nx":28,"ny":28,"refTime":"2024-03-03T09:00:00:Z","depth":0,"parameterNumber":2,"parameterNumberName":"U-component_of_WINDS"},"data":[0,0,0,0,0,0,0,0,0,0,0,0,0,0,0,0,0,0,0,0,0,0,0,0,0,0,0,0,0,0,0,0,0,0,0,0,0,0,0,0,0,0,0,0,0,0,0,0,0,0,0,0,0,0,0,0,0,0,-3.5867,-3.5868,0,-3.5966,-3.5967,-3.5968,-3.5946,-3.5944,-3.5942,-3.594,-3.6041,-3.6045,-3.605,0,0,0,0,0,0,0,0,0,0,0,0,0,-3.5658,-3.5662,-3.5866,-3.5868,-3.5869,-3.5966,-3.5967,-3.5969,-3.5946,-3.5944,-3.5941,-3.5939,-3.604,-3.6045,-3.605,0,0,0,0,0,0,0,0,0,0,0,0,0,-3.5752,-3.5663,-3.5866,-3.5869,-3.5871,-3.5966,-3.5967,-3.5969,-3.5946,-3.5944,-3.5941,-3.5938,-3.6038,-3.6044,-3.6051,-3.6149,0,0,-3.6071,-3.6074,0,0,0,0,0,0,0,0,-3.5746,-3.5759,-3.5868,-3.5869,-3.5871,-3.5941,-3.5931,-3.6029,-3.5947,-3.5918,-3.594,-3.5937,-3.601,-3.6019,-3.6044,-3.6154,-3.6158,-3.6072,-3.6076,-3.6079,-3.6081,0,0,0,0,0,0,0,-3.574,-3.5755,-3.5906,-3.5869,-3.5871,-3.5866,-3.5876,-3.5949,-3.5978,-3.592,-3.5919,-3.5931,-3.601,-3.6037,-3.6046,-3.6159,-3.6072,-3.6078,-3.6082,-3.6084,-3.6356,-3.6359,0,0,0,0,0,0,-3.5732,-3.575,-3.5903,-3.5909,-3.58,-3.5872,-3.5884,-3.5921,-3.5977,-3.5983,-3.5933,-3.5929,-3.6027,-3.6038,-3.6049,-3.6167,-3.6079,-3.6085,-3.6089,-3.6353,-3.6357,-3.636,0,0,0,0,0,0,-3.5728,-3.5746,-3.5899,-3.5829,-3.5848,-3.5879,-3.5921,-3.5924,-3.5951,-3.5987,-3.5992,-3.5955,-3.6025,-3.604,-3.6124,-3.617,-3.6088,-3.6094,-3.6349,-3.6354,-3.6358,-3.6404,0,0,0,0,0,0,-3.5722,-3.5744,-3.5781,-3.583,-3.5852,-3.5972,-3.5924,-3.5928,-3.5963,-3.5959,-3.6009,-3.6015,-3.6024,-3.6115,-3.6131,-3.6178,-3.6099,-3.6345,-3.6351,-3.6357,-3.6399,-3.641,-3.642,0,0,0,0,0,-3.5714,-3.579,-3.5783,-3.5802,-3.5899,-3.5975,-3.5987,-3.5996,-3.5967,-3.6004,-3.6028,-3.6013,-3.6164,-3.6124,-3.6142,-3.6192,-3.6342,-3.6349,-3.6356,-3.6394,-3.6408,-3.6419,0,0,0,0,0,0,-3.5745,-3.5796,-3.5789,-3.5883,-3.5925,-3.5971,-3.6018,-3.6011,-3.6061,-3.6055,-3.6065,-3.6076,-3.6163,-3.6186,-3.6141,-3.629,-3.6248,-3.626,-3.6271,-3.6284,-3.6295,-3.6286,-3.6105,0,0,0,0,0,-3.5763,-3.582,-3.5862,-3.5941,-3.5962,-3.5987,-3.602,-3.6024,-3.6067,-3.6085,-3.6114,-3.6157,-3.6214,-3.6251,-3.6305,-3.6403,-3.6414,-3.6447,-3.6457,-3.6466,-3.6474,-3.6528,-3.6543,-3.6384,-3.6384,-3.6384,0,0,-3.58,-3.5835,-3.587,-3.5948,-3.598,-3.604,-3.6001,-3.6065,-3.6109,-3.6094,-3.6175,-3.62,-3.6248,-3.634,-3.6382,-3.6362,-3.6522,-3.6475,-3.6481,-3.6485,-3.6537,-3.6552,-3.6566,-3.6389,-3.6388,-3.6387,0,0,-3.5897,-3.593,-3.5998,-3.6033,-3.6083,-3.61,-3.6117,-3.6165,-3.618,-3.6262,-3.6252,-3.6306,-3.6403,-3.6438,-3.6469,-3.6583,-3.6571,-3.66,-3.6654,-3.6707,-3.6719,-3.673,-3.677,-3.6784,-3.661,-3.661,-3.661,0,-3.5935,-3.6024,-3.6035,-3.61,-3.6135,-3.6126,-3.6196,-3.6229,-3.6294,-3.6318,-3.6296,-3.6419,-3.6451,-3.6551,-3.6579,-3.6605,-3.6624,-3.6593,-3.6717,-3.6728,-3.6738,-3.6776,-3.6791,-3.6613,-3.6612,-3.6612,-3.6612,0,-3.607,-3.6132,-3.6182,-3.6246,-3.6286,-3.6354,-3.6375,-3.6415,-3.6417,-3.6436,-3.6521,-3.656,-3.6622,-3.6646,-3.6648,-3.6747,-3.6733,-3.6714,-3.6672,-3.6757,-3.6792,-3.6807,-3.6617,-3.6616,-3.6615,-3.6614,0,0,-3.6185,-3.6256,-3.6274,-3.6304,-3.6361,-3.6409,-3.6477,-3.6538,-3.6572,-3.6619,-3.6676,-3.6761,-3.6743,-3.6778,-3.6785,-3.6831,-3.6918,-3.6806,-3.6807,-3.6824,-3.703,-3.7042,-3.7059,-3.6913,-3.6915,-3.6918,-3.7025,0,-3.6285,-3.6405,-3.6418,-3.6524,-3.6582,-3.6576,-3.6635,-3.6677,-3.6698,-3.675,-3.6773,-3.6832,-3.6805,-3.6826,-3.6873,-3.6898,-3.6959,-3.6891,-3.6965,-3.6967,-3.695,-3.7078,-3.7091,-3.7191,-3.7039,-3.7042,-3.7044,0,-3.6418,-3.6469,-3.6582,-3.6632,-3.6656,-3.6709,-3.6768,-3.6818,-3.6866,-3.6878,-3.6918,-3.6919,-3.699,-3.6948,-3.7046,-3.6999,-3.703,-3.7048,-3.7052,-3.7057,-3.7008,-3.7085,-3.7223,-3.7237,-3.7066,-3.7064,-3.7063,0,-3.6489,-3.6586,-3.6666,-3.6692,-3.6753,-3.679,-3.6818,-3.6863,-3.6899,-3.6951,-3.6975,-3.7034,-3.7066,-3.7112,-3.7129,-3.7097,-3.7226,-3.7186,-3.7238,-3.7237,-3.7262,-3.726,-3.7405,-3.7287,-3.7287,-3.7286,-3.7286,0,-3.6598,-3.6667,-3.6699,-3.6748,-3.6825,-3.6841,-3.6917,-3.6943,-3.6984,-3.7038,-3.7037,-3.7088,-3.7109,-3.7163,-3.7178,-3.7256,-3.7271,-3.7282,-3.7285,-3.7281,-3.7279,-3.73,-3.7293,-3.729,-3.729,-3.7289,-3.7288,0,-3.6689,-3.6713,-3.68,-3.6852,-3.6866,-3.6921,-3.6965,-3.7013,-3.7035,-3.7103,-3.712,-3.7154,-3.7218,-3.7241,-3.7319,-3.7329,-3.742,-3.7417,-3.7403,-3.7403,-3.7453,-3.7448,-3.7615,-3.7637,-3.7506,-3.7507,-3.7508,0,-3.6756,-3.6808,-3.6867,-3.6903,-3.6932,-3.6991,-3.7029,-3.7047,-3.7087,-3.7147,-3.7187,-3.7252,-3.7304,-3.7407,-3.7439,-3.7499,-3.7497,-3.7552,-3.7505,-3.75,-3.7496,-3.7491,-3.7497,-3.7559,-3.756,-3.7561,-3.7562,0,-3.6871,-3.6882,-3.6936,-3.6997,-3.7042,-3.709,-3.7137,-3.7167,-3.7192,-3.7237,-3.7304,-3.7344,-3.7425,-3.7489,-3.7551,-3.7579,-3.7575,-3.7577,-3.7592,-3.7587,-3.7576,-3.7582,-3.7424,-3.7572,-3.7571,-3.7571,-3.757,-3.757,-3.6951,-3.6998,-3.7047,-3.7108,-3.7146,-3.719,-3.7237,-3.7266,-3.7321,-3.7388,-3.7397,-3.7468,-3.7517,-3.76,-3.7632,-3.7688,-3.7673,-3.7695,-3.77,-3.7704,-3.7707,-3.757,-3.77,-3.7699,-3.7699,-3.7699,-3.7699,0,-3.7065,-3.7097,-3.7154,-3.722,-3.7268,-3.7263,-3.7314,-3.7355,-3.7418,-3.7464,-3.7516,-3.7593,-3.7656,-3.7694,-3.7757,-3.7794,-3.7794,-3.781,-3.7806,-3.7813,-3.7718,-3.7698,-3.7809,-3.7809,-3.7809,-3.7809,-3.7809,-3.7809,-3.713,-3.7209,-3.7226,-3.7324,-3.7356,-3.7426,-3.7456,-3.7497,-3.7534,-3.762,-3.7672,-3.7697,-3.774,-3.7806,-3.7864,-3.7874,-3.7896,-3.7913,-3.7921,-3.7831,-3.7819,-3.7808,-3.779,-3.7919,-3.7919,-3.8011,-3.8012,-3.8013]},{"header":{"parameterUnit":"m.s-1","parameterCategory":1,"la1":30.2991,"la2":30.254,"lo1":-89.0895,"lo2":-89.0444,"dy":0.0017,"dx":0.0017,"nx":28,"ny":28,"refTime":"2024-03-03T09:00:00:Z","depth":0,"parameterNumber":3,"parameterNumberName":"V-component_of_WINDS"},"data":[0,0,0,0,0,0,0,0,0,0,0,0,0,0,0,0,0,0,0,0,0,0,0,0,0,0,0,0,0,0,0,0,0,0,0,0,0,0,0,0,0,0,0,0,0,0,0,0,0,0,0,0,0,0,0,0,0,0,1.5204,1.5205,0,1.5258,1.5258,1.5259,1.53,1.5301,1.5301,1.5301,1.5352,1.5353,1.5354,0,0,0,0,0,0,0,0,0,0,0,0,0,1.5137,1.5138,1.5204,1.5205,1.5206,1.5258,1.5258,1.5259,1.53,1.5301,1.5301,1.5301,1.5352,1.5353,1.5354,0,0,0,0,0,0,0,0,0,0,0,0,0,1.5175,1.5138,1.5204,1.5233,1.5236,1.5257,1.5258,1.5259,1.53,1.5301,1.5301,1.5302,1.5351,1.5353,1.5354,1.5351,0,0,1.5358,1.5359,0,0,0,0,0,0,0,0,1.5173,1.5178,1.5228,1.5231,1.5234,1.5273,1.5253,1.529,1.53,1.5275,1.5301,1.5302,1.5325,1.5328,1.5337,1.5353,1.5355,1.5359,1.5359,1.536,1.536,0,0,0,0,0,0,0,1.517,1.5176,1.5225,1.5228,1.5232,1.5242,1.5248,1.526,1.5296,1.5278,1.5281,1.5287,1.5327,1.5335,1.5338,1.5356,1.5358,1.536,1.5361,1.5361,1.5374,1.5374,0,0,0,0,0,0,1.5164,1.5173,1.5224,1.5227,1.5205,1.5243,1.525,1.526,1.5296,1.5302,1.5286,1.5288,1.5333,1.5337,1.534,1.5341,1.536,1.5361,1.5362,1.5375,1.5374,1.5374,0,0,0,0,0,0,1.5162,1.5168,1.5221,1.5201,1.5209,1.5243,1.5254,1.526,1.5269,1.5302,1.5309,1.5289,1.5333,1.5338,1.5349,1.5343,1.5362,1.5363,1.5375,1.5375,1.5374,1.534,0,0,0,0,0,0,1.516,1.5167,1.5166,1.5201,1.521,1.5229,1.5254,1.5261,1.5272,1.5276,1.5306,1.5312,1.5334,1.5346,1.535,1.5345,1.5364,1.5376,1.5375,1.5374,1.5341,1.5338,1.5335,0,0,0,0,0,1.5157,1.5153,1.5166,1.5172,1.521,1.5229,1.5234,1.526,1.5272,1.5271,1.5293,1.5311,1.5343,1.5347,1.5352,1.5347,1.5377,1.5375,1.5374,1.5343,1.5338,1.5335,0,0,0,0,0,0,1.5115,1.5158,1.5173,1.518,1.5201,1.5236,1.5236,1.5254,1.5271,1.5274,1.5305,1.5312,1.5319,1.5334,1.5338,1.5347,1.5362,1.5362,1.5337,1.5333,1.5329,1.5326,1.5366,0,0,0,0,0,1.5107,1.512,1.5156,1.5159,1.5169,1.52,1.521,1.5229,1.5251,1.526,1.5282,1.5302,1.5317,1.5326,1.5341,1.5344,1.5352,1.5343,1.534,1.5337,1.5336,1.5341,1.5338,1.537,1.537,1.537,0,0,1.5089,1.5114,1.512,1.5151,1.5169,1.5182,1.5207,1.5219,1.5228,1.5261,1.5273,1.529,1.5314,1.5322,1.5326,1.5334,1.5329,1.5335,1.5333,1.5334,1.5339,1.5336,1.5333,1.5369,1.5369,1.5369,0,0,1.5063,1.5083,1.5089,1.5108,1.5136,1.5158,1.5159,1.5192,1.5206,1.5219,1.5244,1.5255,1.5279,1.5297,1.5308,1.5293,1.531,1.5297,1.5279,1.5283,1.528,1.5278,1.5273,1.5271,1.5296,1.5296,1.5296,0,1.5037,1.5058,1.5089,1.51,1.5113,1.5146,1.5152,1.5168,1.5199,1.5207,1.5217,1.525,1.5268,1.5281,1.5277,1.5285,1.5288,1.5293,1.5278,1.5276,1.5275,1.5271,1.5269,1.5294,1.5294,1.5294,1.5294,0,1.5026,1.504,1.5041,1.5073,1.5086,1.5094,1.5126,1.5136,1.5154,1.5175,1.5188,1.5212,1.5234,1.5238,1.5255,1.5254,1.5258,1.5273,1.5289,1.527,1.5266,1.5265,1.5291,1.5292,1.5293,1.5293,0,0,1.4973,1.5024,1.5024,1.504,1.5075,1.5086,1.5096,1.512,1.5128,1.5149,1.5158,1.5179,1.5194,1.5207,1.5227,1.523,1.5218,1.5244,1.5245,1.5239,1.5219,1.5208,1.5206,1.523,1.523,1.523,1.5217,0,1.4954,1.4975,1.5005,1.5016,1.503,1.5062,1.5071,1.5094,1.5114,1.5128,1.515,1.5165,1.5182,1.5191,1.5196,1.5218,1.5214,1.5219,1.5239,1.5239,1.5232,1.5204,1.5193,1.518,1.5216,1.5216,1.5216,0,1.4934,1.4956,1.4969,1.5006,1.5012,1.502,1.5045,1.5058,1.5085,1.5099,1.5115,1.5137,1.515,1.5165,1.5182,1.5185,1.5195,1.5208,1.5208,1.5211,1.5226,1.5207,1.5176,1.5174,1.5214,1.5214,1.5214,0,1.4896,1.4928,1.4941,1.4954,1.4996,1.5001,1.5018,1.5046,1.5058,1.5079,1.5088,1.511,1.5122,1.5138,1.5165,1.5173,1.518,1.5197,1.5192,1.5192,1.5192,1.5192,1.5163,1.5198,1.5198,1.5198,1.5198,0,1.4871,1.4878,1.4925,1.4933,1.4942,1.4976,1.4984,1.5004,1.5029,1.5041,1.5069,1.508,1.5116,1.513,1.5152,1.5164,1.5168,1.518,1.5186,1.5178,1.5177,1.5185,1.5187,1.5197,1.5197,1.5198,1.5198,0,1.483,1.4861,1.4878,1.4918,1.4928,1.4933,1.4967,1.4976,1.4999,1.5014,1.5019,1.5054,1.5074,1.5103,1.513,1.5144,1.5153,1.5162,1.5145,1.5148,1.5143,1.5143,1.5118,1.5117,1.5152,1.5151,1.5151,0,1.4812,1.4819,1.4861,1.4872,1.4889,1.4906,1.4921,1.4954,1.4968,1.5,1.5005,1.5027,1.5046,1.5075,1.5102,1.5124,1.5134,1.5124,1.5137,1.5129,1.5135,1.5134,1.5135,1.512,1.512,1.5119,1.5119,0,1.4778,1.4794,1.4814,1.484,1.4857,1.4879,1.4901,1.4909,1.4947,1.4961,1.4982,1.4997,1.5027,1.5048,1.5074,1.5091,1.5111,1.5115,1.5115,1.5107,1.5097,1.5104,1.5137,1.5115,1.5115,1.5116,1.5116,1.5116,1.4749,1.4757,1.4789,1.4811,1.4832,1.4853,1.4865,1.489,1.4909,1.4937,1.4955,1.4975,1.5003,1.504,1.5057,1.5073,1.5081,1.5081,1.5081,1.5081,1.5079,1.5095,1.5077,1.5077,1.5077,1.5078,1.5078,0,1.4717,1.474,1.476,1.4793,1.481,1.483,1.4857,1.487,1.4888,1.4913,1.4932,1.4957,1.4979,1.5009,1.5033,1.504,1.505,1.5045,1.5045,1.5049,1.5069,1.5067,1.5036,1.5036,1.5037,1.5037,1.5037,1.5037,1.4703,1.4719,1.4739,1.4766,1.4789,1.4811,1.4824,1.4844,1.4865,1.4892,1.4911,1.4931,1.4958,1.4985,1.5006,1.5014,1.5021,1.5014,1.5025,1.5043,1.5047,1.5051,1.5049,1.5015,1.5015,1.5003,1.5003,1.5003]}]]